"startDT [UTC]","vpos","CH4 [ppm]","stdev(CH4) [ppm]","CO2 [ppm]","stdev(CO2) [ppm]","H2O [ppm]","stdev(H2O)","p_LGR [torr]","T_LGR [C]","mt1_LGR [us]","mt2_LGR [us]","T_ECpre [C]","T_EC1 [C]","T_EC2 [C]","p_inlet [hPa]","p_in [hPa]","p_out [hPa]","T_inlet [C]","RH_inlet [%]","dwpt_inlet [C]","T_vent [C]","RH_vent [%]","dwpt_vent [C]","flow_vent [l min-1]","flow_inlet [l min-1]","dwpt_sample [C]","T_room [C]"
2013-05-27 00:00:00,0.0,1.8984,0.0010,407.52,0.31,226.5,34.8,138.12,26.96,24.64,36.38,0.04,-272.76,-272.76,-38,559,-923,20.3,13.3,-8.7,20.6,13.5,-8.3,5.73,2.44,-23.7,26.7
2013-05-27 00:01:00,0.0,1.8987,0.0008,407.55,0.31,237.1,35.7,138.12,26.97,24.64,36.38,0.04,-272.76,-272.76,-38,559,-923,20.3,13.8,-8.3,20.6,14.0,-7.8,5.73,2.39,-23.7,26.7
2013-05-27 00:02:00,0.0,1.8986,0.0009,407.69,0.30,235.6,32.9,138.12,26.98,24.64,36.38,0.04,-272.76,-272.75,-38,559,-923,20.3,14.3,-7.8,20.6,14.5,-7.3,5.73,2.32,-23.7,26.7
2013-05-27 00:03:00,0.0,1.8988,0.0009,407.66,0.31,241.6,35.1,138.13,26.99,24.63,36.37,0.04,-272.76,-272.75,-38,559,-922,20.3,14.3,-7.8,20.6,14.6,-7.3,5.73,2.42,-23.7,26.7
2013-05-27 00:04:00,0.0,1.8986,0.0011,407.55,0.34,246.5,38.0,138.12,27.00,24.64,36.38,0.04,-272.75,-272.76,-38,559,-922,20.3,13.5,-8.6,20.6,13.7,-8.1,5.73,2.42,-23.7,26.7
2013-05-27 00:05:00,0.0,1.8987,0.0008,407.68,0.36,241.3,33.0,138.12,27.01,24.63,36.37,0.04,-272.75,-272.76,-38,559,-923,20.3,13.6,-8.4,20.7,13.8,-8.0,5.73,2.32,-23.7,26.8
2013-05-27 00:06:00,0.0,1.8988,0.0007,407.43,0.30,231.5,33.0,138.12,27.02,24.63,36.39,0.04,-272.75,-272.76,-38,559,-923,20.3,14.1,-8.0,20.7,14.2,-7.6,5.73,2.39,-23.7,26.8
2013-05-27 00:07:00,0.0,1.8985,0.0010,407.56,0.33,242.5,35.1,138.12,27.03,24.64,36.38,0.04,-272.76,-272.76,-38,559,-923,20.3,14.6,-7.6,20.7,14.7,-7.1,5.73,2.44,-23.7,26.8
2013-05-27 00:08:00,0.0,1.8985,0.0009,407.57,0.36,246.0,33.7,138.12,27.03,24.64,36.38,0.04,-272.76,-272.76,-38,560,-923,20.3,14.9,-7.3,20.7,15.1,-6.8,5.73,2.34,-23.7,26.8
2013-05-27 00:09:00,0.0,1.8987,0.0009,407.39,0.29,240.0,32.7,138.12,27.04,24.63,36.39,0.04,-272.75,-272.76,-38,559,-923,20.3,14.4,-7.7,20.7,14.7,-7.1,5.73,2.35,-23.7,26.8
2013-05-27 00:10:00,0.0,1.8985,0.0008,407.60,0.32,250.4,34.1,138.12,27.05,24.64,36.37,0.04,-272.76,-272.76,-38,559,-923,20.3,13.8,-8.2,20.7,14.0,-7.8,5.73,2.45,-23.7,26.9
2013-05-27 00:11:00,0.0,1.8986,0.0008,407.47,0.34,237.7,41.6,138.12,27.06,24.64,36.38,0.04,-272.76,-272.76,-38,560,-923,20.4,14.3,-7.8,20.7,14.4,-7.3,5.73,2.35,-23.7,26.8
2013-05-27 00:12:00,0.0,1.8989,0.0010,407.55,0.31,235.9,36.6,138.12,27.07,24.63,36.38,0.04,-272.75,-272.74,-38,560,-923,20.4,14.9,-7.2,20.7,15.1,-6.8,5.73,2.34,-23.7,26.8
2013-05-27 00:13:00,0.0,1.8988,0.0010,407.60,0.34,236.6,33.9,138.12,27.08,24.64,36.37,0.04,-272.75,-272.77,-38,559,-923,20.4,14.4,-7.7,20.8,14.6,-7.2,5.73,2.45,-23.7,26.8
2013-05-27 00:14:00,0.0,1.8988,0.0009,407.51,0.35,240.1,36.2,138.12,27.08,24.63,36.38,0.04,-272.76,-272.76,-39,560,-923,20.4,14.3,-7.8,20.7,14.5,-7.3,5.73,2.37,-23.7,26.9
2013-05-27 00:15:00,0.0,1.8987,0.0007,407.48,0.30,246.4,29.4,138.12,27.09,24.63,36.38,0.04,-272.76,-272.76,-38,560,-922,20.4,14.0,-8.0,20.7,14.2,-7.5,5.73,2.33,-23.7,26.9
2013-05-27 00:16:00,0.0,1.8987,0.0009,407.56,0.32,238.4,33.9,138.12,27.10,24.64,36.38,0.04,-272.76,-272.76,-38,560,-923,20.4,14.4,-7.7,20.7,14.6,-7.2,5.73,2.44,-23.6,26.9
2013-05-27 00:17:00,0.0,1.8986,0.0008,407.49,0.36,243.7,30.1,138.12,27.11,24.64,36.39,0.04,-272.77,-272.76,-38,560,-923,20.4,14.5,-7.6,20.7,14.7,-7.1,5.73,2.39,-23.6,26.9
2013-05-27 00:18:00,0.0,1.8989,0.0008,407.42,0.38,247.4,31.9,138.12,27.12,24.63,36.39,0.04,-272.75,-272.76,-39,560,-923,20.4,14.1,-7.9,20.8,14.3,-7.5,5.73,2.32,-23.7,26.9
2013-05-27 00:19:00,0.0,1.8985,0.0009,407.47,0.30,253.9,37.5,138.12,27.12,24.64,36.39,0.04,-272.75,-272.76,-38,560,-923,20.4,14.1,-7.9,20.8,14.3,-7.5,5.73,2.43,-23.7,26.9
2013-05-27 00:20:00,0.0,1.8984,0.0008,407.49,0.29,258.1,31.3,138.12,27.13,24.64,36.38,0.04,-272.76,-272.75,-38,560,-922,20.4,14.3,-7.7,20.8,14.5,-7.3,5.73,2.40,-23.8,26.9
2013-05-27 00:21:00,0.0,1.8980,0.0008,407.49,0.30,252.3,29.0,138.12,27.14,24.64,36.38,0.04,-272.76,-272.76,-38,560,-923,20.4,15.0,-7.1,20.8,15.2,-6.6,5.73,2.32,-23.6,26.8
2013-05-27 00:22:00,0.0,1.8982,0.0008,407.48,0.33,255.2,32.7,138.12,27.15,24.64,36.38,0.04,-272.76,-272.76,-38,560,-923,20.4,15.1,-7.0,20.8,15.3,-6.5,5.73,2.42,-23.7,26.9
2013-05-27 00:23:00,0.0,1.8986,0.0011,407.45,0.27,260.5,35.9,138.12,27.16,24.64,36.38,0.04,-272.75,-272.76,-38,560,-923,20.4,15.7,-6.6,20.8,15.9,-6.1,5.73,2.42,-23.6,26.9
2013-05-27 00:24:00,0.0,1.8982,0.0010,407.44,0.35,249.1,33.8,138.12,27.17,24.64,36.39,0.04,-272.76,-272.76,-38,560,-923,20.4,15.3,-6.8,20.8,15.6,-6.3,5.73,2.32,-23.6,26.9
2013-05-27 00:25:00,0.0,1.8984,0.0009,407.38,0.31,249.5,37.7,138.12,27.17,24.64,36.39,0.04,-272.76,-272.76,-39,560,-923,20.4,14.8,-7.3,20.8,15.0,-6.8,5.73,2.40,-23.6,26.9
2013-05-27 00:26:00,0.0,1.8983,0.0010,407.49,0.34,260.6,31.1,138.12,27.18,24.64,36.38,0.04,-272.75,-272.76,-39,560,-923,20.4,14.3,-7.8,20.8,14.5,-7.3,5.73,2.43,-23.6,26.9
2013-05-27 00:27:00,0.0,1.8983,0.0007,407.45,0.33,258.8,28.0,138.12,27.19,24.64,36.38,0.04,-272.75,-272.76,-38,560,-923,20.4,14.1,-7.9,20.8,14.3,-7.4,5.73,2.31,-23.6,26.9
2013-05-27 00:28:00,0.0,1.8986,0.0010,407.44,0.31,252.5,28.5,138.12,27.20,24.64,36.38,0.04,-272.76,-272.76,-39,560,-923,20.4,14.6,-7.4,20.8,14.8,-7.0,5.73,2.40,-23.6,26.9
2013-05-27 00:29:00,0.0,1.8982,0.0009,407.39,0.34,258.1,33.0,138.12,27.21,24.64,36.39,0.04,-272.75,-272.76,-39,560,-923,20.4,14.6,-7.4,20.8,14.8,-7.0,5.73,2.43,-23.6,26.9
2013-05-27 00:30:00,0.0,1.8984,0.0009,407.43,0.32,259.8,27.9,138.12,27.22,24.64,36.38,0.04,-272.75,-272.76,-38,560,-923,20.4,14.9,-7.1,20.8,15.1,-6.7,5.73,2.32,-23.6,26.9
2013-05-27 00:31:00,0.0,1.8981,0.0007,407.24,0.32,267.3,34.1,138.12,27.22,24.64,36.40,0.04,-272.76,-272.75,-38,560,-923,20.4,14.6,-7.4,20.8,14.8,-6.9,5.73,2.39,-23.6,27.0
2013-05-27 00:32:00,0.0,1.8982,0.0009,407.34,0.34,262.3,35.9,138.12,27.23,24.64,36.39,0.04,-272.75,-272.75,-39,560,-923,20.4,14.5,-7.5,20.8,14.7,-7.1,5.73,2.44,-23.6,26.9
2013-05-27 00:33:00,0.0,1.8980,0.0009,407.25,0.27,268.1,34.6,138.12,27.24,24.64,36.40,0.04,-272.75,-272.76,-39,560,-923,20.4,14.9,-7.1,20.8,15.1,-6.7,5.73,2.33,-23.6,26.9
2013-05-27 00:34:00,0.0,1.8980,0.0009,407.40,0.32,268.0,26.6,138.12,27.25,24.64,36.39,0.04,-272.76,-272.75,-38,560,-923,20.4,15.1,-7.0,20.8,15.2,-6.6,5.73,2.37,-23.6,26.9
2013-05-27 00:35:00,0.0,1.8981,0.0009,407.23,0.36,256.4,32.9,138.12,27.25,24.64,36.39,0.04,-272.75,-272.76,-38,560,-923,20.4,14.7,-7.4,20.8,14.9,-6.8,5.73,2.44,-23.6,26.9
2013-05-27 00:36:00,0.0,1.8979,0.0010,407.41,0.31,259.0,37.3,138.12,27.26,24.64,36.38,0.04,-272.75,-272.76,-39,560,-923,20.4,15.1,-7.0,20.8,15.3,-6.5,5.73,2.33,-23.6,26.9
2013-05-27 00:37:00,0.0,1.8981,0.0010,407.27,0.32,270.4,38.3,138.12,27.27,24.64,36.39,0.04,-272.76,-272.75,-39,560,-923,20.4,15.1,-7.0,20.9,15.3,-6.5,5.73,2.37,-23.5,27.0
2013-05-27 00:38:00,0.0,1.8984,0.0009,407.34,0.33,265.0,38.0,138.12,27.28,24.64,36.39,0.04,-272.76,-272.76,-38,560,-923,20.4,15.2,-6.9,20.9,15.4,-6.4,5.73,2.44,-23.6,26.9
2013-05-27 00:39:00,0.0,1.8983,0.0011,407.37,0.35,261.0,25.8,138.12,27.29,24.64,36.39,0.04,-272.75,-272.75,-38,560,-923,20.5,15.3,-6.8,20.9,15.5,-6.3,5.73,2.34,-23.6,26.9
2013-05-27 00:40:00,0.0,1.8982,0.0007,407.34,0.34,262.4,33.8,138.12,27.30,24.64,36.39,0.04,-272.76,-272.76,-39,560,-923,20.5,15.2,-6.9,20.9,15.4,-6.4,5.73,2.35,-23.6,26.9
2013-05-27 00:41:00,0.0,1.8980,0.0008,407.30,0.30,269.5,34.1,138.12,27.30,24.64,36.39,0.04,-272.76,-272.75,-38,560,-923,20.5,14.9,-7.1,20.9,15.1,-6.6,5.73,2.45,-23.6,26.9
2013-05-27 00:42:00,0.0,1.8978,0.0008,407.34,0.29,265.2,31.8,138.12,27.31,24.64,36.39,0.04,-272.75,-272.75,-38,560,-923,20.5,14.9,-7.1,20.9,15.1,-6.6,5.73,2.35,-23.6,27.0
2013-05-27 00:43:00,0.0,1.8980,0.0010,407.23,0.29,269.3,31.8,138.12,27.32,24.64,36.39,0.04,-272.75,-272.75,-39,560,-923,20.5,15.3,-6.8,20.9,15.5,-6.3,5.73,2.35,-23.5,27.0
2013-05-27 00:44:00,0.0,1.8983,0.0008,407.26,0.34,258.0,33.0,138.12,27.33,24.64,36.40,0.04,-272.76,-272.76,-39,560,-923,20.5,14.9,-7.2,20.9,15.1,-6.7,5.73,2.45,-23.5,27.0
2013-05-27 00:45:00,0.0,1.8979,0.0009,407.26,0.35,273.9,32.5,138.12,27.34,24.64,36.39,0.04,-272.76,-272.77,-38,560,-923,20.5,15.0,-7.0,20.9,15.2,-6.5,5.73,2.36,-23.5,27.0
2013-05-27 00:46:00,0.0,1.8981,0.0009,407.33,0.32,274.9,29.6,138.12,27.34,24.64,36.39,0.04,-272.76,-272.75,-38,560,-923,20.5,15.0,-7.0,20.9,15.2,-6.5,5.73,2.33,-23.5,27.0
2013-05-27 00:47:00,0.0,1.8983,0.0007,407.28,0.34,275.1,27.2,138.12,27.35,24.64,36.39,0.04,-272.75,-272.75,-39,560,-923,20.5,14.9,-7.2,20.9,15.0,-6.7,5.73,2.44,-23.5,27.0
2013-05-27 00:48:00,0.0,1.8982,0.0008,407.33,0.34,273.3,34.2,138.12,27.36,24.64,36.39,0.04,-272.76,-272.76,-39,560,-923,20.5,15.1,-6.9,20.9,15.3,-6.5,5.73,2.37,-23.5,27.1
2013-05-27 00:49:00,0.0,1.8980,0.0008,407.27,0.33,271.6,31.4,138.12,27.36,24.64,36.39,0.04,-272.75,-272.76,-38,560,-923,20.5,14.8,-7.2,20.9,15.0,-6.7,5.73,2.33,-23.5,27.0
2013-05-27 00:50:00,0.0,1.8980,0.0009,407.21,0.34,276.0,34.7,138.12,27.37,24.64,36.39,0.04,-272.75,-272.76,-38,560,-923,20.5,14.9,-7.1,20.9,15.1,-6.6,5.73,2.44,-23.5,27.1
2013-05-27 00:51:00,0.0,1.8977,0.0009,407.26,0.28,276.7,31.4,138.12,27.38,24.64,36.39,0.04,-272.75,-272.76,-39,560,-923,20.5,15.0,-7.0,20.9,15.2,-6.5,5.73,2.38,-23.5,27.0
2013-05-27 00:52:00,0.0,1.8979,0.0009,407.17,0.34,264.0,37.1,138.12,27.39,24.64,36.39,0.04,-272.75,-272.75,-38,560,-923,20.5,15.3,-6.7,21.0,15.5,-6.2,5.73,2.32,-23.5,27.0
2013-05-27 00:53:00,0.0,1.8978,0.0011,407.30,0.30,274.8,28.5,138.12,27.39,24.64,36.38,0.04,-272.75,-272.76,-38,560,-923,20.5,15.2,-6.8,21.0,15.4,-6.3,5.73,2.44,-23.5,27.1
2013-05-27 00:54:00,0.0,1.8982,0.0009,407.23,0.31,272.0,33.4,138.12,27.40,24.64,36.39,0.04,-272.76,-272.75,-38,560,-923,20.5,15.0,-7.0,21.0,15.2,-6.5,5.73,2.37,-23.5,27.1
2013-05-27 00:55:00,0.0,1.8977,0.0010,407.21,0.33,273.3,36.1,138.12,27.41,24.64,36.39,0.04,-272.76,-272.75,-39,560,-923,20.5,15.0,-7.0,20.9,15.2,-6.5,5.73,2.32,-23.5,27.1
2013-05-27 00:56:00,0.0,1.8980,0.0009,407.18,0.29,282.0,34.5,138.12,27.42,24.64,36.38,0.04,-272.75,-272.75,-38,560,-923,20.5,15.1,-6.9,20.9,15.2,-6.5,5.73,2.45,-23.5,27.1
2013-05-27 00:57:00,0.0,1.8975,0.0009,407.21,0.27,277.2,30.2,138.12,27.42,24.64,36.39,0.04,-272.76,-272.75,-38,560,-923,20.5,15.1,-6.9,20.9,15.3,-6.4,5.73,2.37,-23.5,27.2
2013-05-27 00:58:00,0.0,1.8977,0.0009,407.07,0.37,267.0,36.5,138.12,27.43,24.64,36.40,0.04,-272.76,-272.76,-39,560,-923,20.5,14.9,-7.2,20.9,15.0,-6.7,5.73,2.33,-23.5,27.1
2013-05-27 00:59:00,0.0,1.8984,0.0010,407.21,0.34,269.3,30.4,138.12,27.44,24.64,36.39,0.04,-272.75,-272.75,-38,560,-923,20.5,15.0,-7.0,20.9,15.1,-6.6,5.73,2.45,-23.5,27.1
2013-05-27 01:00:00,0.0,1.8981,0.0009,407.19,0.30,277.7,33.9,138.12,27.44,24.64,36.39,0.04,-272.76,-272.76,-38,560,-923,20.5,15.1,-6.9,20.9,15.3,-6.4,5.73,2.36,-23.5,27.2
2013-05-27 01:01:00,0.0,1.8977,0.0009,407.15,0.29,278.1,29.5,138.12,27.45,24.64,36.40,0.04,-272.76,-272.76,-38,560,-923,20.5,15.3,-6.8,20.9,15.5,-6.2,5.73,2.33,-23.5,27.2
2013-05-27 01:02:00,0.0,1.8980,0.0008,407.11,0.32,287.9,38.1,138.11,27.46,24.64,36.39,0.04,-272.75,-272.76,-39,560,-923,20.5,14.7,-7.3,20.9,14.9,-6.8,5.73,2.45,-23.5,27.2
2013-05-27 01:03:00,0.0,1.8976,0.0008,407.09,0.32,278.2,29.0,138.12,27.46,24.64,36.40,0.04,-272.75,-272.75,-38,560,-923,20.5,14.8,-7.2,20.9,15.0,-6.7,5.73,2.36,-23.5,27.2
2013-05-27 01:04:00,0.0,1.8978,0.0009,407.10,0.30,284.9,29.8,138.12,27.47,24.64,36.40,0.04,-272.76,-272.76,-38,560,-923,20.5,14.7,-7.3,20.9,14.8,-6.9,5.73,2.33,-23.5,27.2
2013-05-27 01:05:00,0.0,1.8980,0.0007,407.10,0.32,270.3,31.7,138.11,27.48,24.64,36.39,0.04,-272.76,-272.76,-38,560,-923,20.5,14.8,-7.2,20.9,15.0,-6.7,5.73,2.44,-23.5,27.2
2013-05-27 01:06:00,0.0,1.8977,0.0009,407.19,0.30,284.2,34.5,138.11,27.49,24.64,36.39,0.04,-272.75,-272.76,-39,560,-923,20.5,14.7,-7.3,20.9,14.9,-6.8,5.73,2.36,-23.5,27.1
2013-05-27 01:07:00,0.0,1.8975,0.0009,407.09,0.29,283.2,31.4,138.11,27.50,24.64,36.40,0.04,-272.75,-272.75,-38,560,-923,20.5,14.6,-7.3,20.9,14.8,-6.8,5.73,2.34,-23.5,27.2
2013-05-27 01:08:00,0.0,1.8980,0.0008,406.98,0.31,277.6,34.0,138.11,27.51,24.64,36.40,0.04,-272.76,-272.76,-38,560,-923,20.5,14.5,-7.5,20.9,14.6,-7.0,5.73,2.45,-23.5,27.2
2013-05-27 01:09:00,0.0,1.8982,0.0011,407.07,0.31,280.2,33.9,138.11,27.52,24.64,36.40,0.04,-272.75,-272.75,-39,560,-923,20.5,14.7,-7.2,20.9,14.9,-6.8,5.73,2.35,-23.5,27.1
2013-05-27 01:10:00,0.0,1.8979,0.0009,407.12,0.27,277.8,30.9,138.11,27.52,24.64,36.40,0.04,-272.76,-272.76,-38,560,-923,20.5,14.8,-7.2,20.9,14.9,-6.8,5.73,2.34,-23.5,27.2
2013-05-27 01:11:00,0.0,1.8981,0.0008,407.09,0.26,278.3,38.3,138.11,27.53,24.64,36.40,0.04,-272.75,-272.76,-38,560,-923,20.6,15.2,-6.8,21.0,15.4,-6.3,5.73,2.45,-23.4,27.2
2013-05-27 01:12:00,0.0,1.8982,0.0010,407.12,0.31,285.0,34.3,138.11,27.54,24.64,36.39,0.04,-272.76,-272.76,-39,560,-923,20.6,14.3,-7.6,21.0,14.6,-7.0,5.73,2.33,-23.5,27.2
2013-05-27 01:13:00,0.0,1.8982,0.0008,407.08,0.36,282.8,32.8,138.11,27.55,24.64,36.40,0.04,-272.75,-272.75,-38,561,-923,20.6,14.8,-7.1,21.0,14.9,-6.7,5.73,2.36,-23.4,27.2
2013-05-27 01:14:00,0.0,1.8979,0.0009,407.07,0.34,273.5,36.0,138.11,27.55,24.64,36.40,0.04,-272.75,-272.75,-38,561,-923,20.6,15.2,-6.8,21.0,15.4,-6.3,5.73,2.44,-23.5,27.2
2013-05-27 01:15:00,0.0,1.8981,0.0009,407.10,0.30,275.0,36.0,138.11,27.56,24.64,36.39,0.04,-272.76,-272.76,-38,560,-923,20.6,14.7,-7.3,21.0,14.9,-6.7,5.73,2.33,-23.5,27.3
2013-05-27 01:16:00,0.0,1.8976,0.0010,407.03,0.24,279.1,34.9,138.11,27.57,24.64,36.40,0.04,-272.75,-272.76,-39,560,-923,20.5,14.5,-7.4,20.9,14.6,-7.0,5.73,2.38,-23.5,27.2
2013-05-27 01:17:00,0.0,1.8978,0.0010,406.97,0.29,286.9,30.6,138.11,27.58,24.64,36.41,0.04,-272.76,-272.76,-38,561,-923,20.6,14.4,-7.5,21.0,14.5,-7.0,5.73,2.43,-23.4,27.2
2013-05-27 01:18:00,0.0,1.8978,0.0008,407.03,0.31,276.9,35.6,138.11,27.58,24.64,36.40,0.04,-272.76,-272.76,-38,561,-924,20.6,14.9,-7.1,21.0,15.1,-6.6,5.73,2.31,-23.5,27.2
2013-05-27 01:19:00,0.0,1.8977,0.0010,407.19,0.32,279.9,30.8,138.11,27.59,24.64,36.39,0.04,-272.75,-272.76,-39,560,-923,20.5,14.7,-7.2,21.0,14.9,-6.7,5.73,2.40,-23.4,27.2
2013-05-27 01:20:00,0.0,1.8975,0.0009,407.13,0.30,283.5,29.2,138.11,27.60,24.65,36.39,0.04,-272.75,-272.75,-39,560,-923,20.6,14.8,-7.2,21.0,14.9,-6.7,5.73,2.42,-23.4,27.2
2013-05-27 01:21:00,0.0,1.8978,0.0008,407.07,0.31,265.0,30.0,138.11,27.61,24.64,36.39,0.04,-272.76,-272.75,-38,560,-923,20.5,14.4,-7.5,21.0,14.6,-7.0,5.73,2.31,-23.4,27.2
2013-05-27 01:22:00,0.0,1.8979,0.0009,407.10,0.27,278.7,32.9,138.11,27.61,24.64,36.39,0.04,-272.75,-272.75,-38,560,-923,20.6,14.1,-7.8,21.0,14.3,-7.3,5.73,2.41,-23.4,27.3
2013-05-27 01:23:00,0.0,1.8977,0.0007,407.01,0.29,281.8,35.8,138.11,27.62,24.64,36.40,0.04,-272.75,-272.76,-39,560,-923,20.6,14.5,-7.4,21.0,14.6,-7.0,5.73,2.41,-23.4,27.3
2013-05-27 01:24:00,0.0,1.8977,0.0009,407.03,0.26,277.6,35.9,138.11,27.63,24.65,36.40,0.04,-272.75,-272.76,-38,560,-923,20.6,14.1,-7.8,21.0,14.3,-7.2,5.73,2.31,-23.4,27.3
2013-05-27 01:25:00,0.0,1.8977,0.0009,407.00,0.25,285.7,32.8,138.11,27.63,24.64,36.40,0.04,-272.75,-272.76,-38,560,-923,20.6,14.0,-7.8,21.0,14.2,-7.3,5.73,2.41,-23.4,27.3
2013-05-27 01:26:00,0.0,1.8980,0.0008,407.05,0.30,281.4,38.5,138.11,27.64,24.64,36.39,0.04,-272.76,-272.76,-39,560,-923,20.6,13.7,-8.1,21.0,13.9,-7.6,5.73,2.41,-23.4,27.3
2013-05-27 01:27:00,0.0,1.8980,0.0010,407.00,0.29,283.0,24.8,138.11,27.65,24.64,36.39,0.04,-272.75,-272.75,-39,561,-923,20.6,13.9,-7.9,21.0,14.1,-7.5,5.73,2.31,-23.4,27.3
2013-05-27 01:28:00,0.0,1.8974,0.0009,407.00,0.32,289.6,28.5,138.11,27.65,24.64,36.40,0.04,-272.75,-272.75,-38,561,-923,20.6,13.9,-7.9,21.0,14.1,-7.4,5.73,2.41,-23.4,27.3
2013-05-27 01:29:00,0.0,1.8980,0.0011,407.03,0.28,277.9,43.4,138.11,27.66,24.64,36.39,0.04,-272.76,-272.76,-38,561,-923,20.6,14.2,-7.7,21.0,14.3,-7.2,5.73,2.41,-23.4,27.3
2013-05-27 01:30:00,0.0,1.8979,0.0010,407.11,0.29,276.0,32.8,138.11,27.67,24.64,36.39,0.04,-272.74,-272.75,-39,560,-923,20.6,14.1,-7.7,21.0,14.3,-7.3,5.73,2.31,-23.4,27.3
2013-05-27 01:31:00,0.0,1.8976,0.0009,406.99,0.29,286.1,32.8,138.11,27.68,24.64,36.39,0.04,-272.75,-272.76,-38,560,-923,20.6,14.2,-7.6,21.0,14.4,-7.1,5.73,2.42,-23.4,27.3
2013-05-27 01:32:00,0.0,1.8977,0.0009,407.00,0.32,272.0,33.4,138.11,27.69,24.64,36.40,0.04,-272.76,-272.76,-38,561,-923,20.6,14.4,-7.4,21.0,14.6,-7.0,5.73,2.40,-23.4,27.3
2013-05-27 01:33:00,0.0,1.8974,0.0010,406.88,0.32,281.1,26.8,138.11,27.69,24.65,36.41,0.04,-272.76,-272.76,-38,561,-923,20.6,14.2,-7.6,21.0,14.4,-7.2,5.73,2.31,-23.4,27.4
2013-05-27 01:34:00,0.0,1.8974,0.0009,407.00,0.31,284.1,35.3,138.11,27.70,24.65,36.39,0.04,-272.75,-272.76,-39,561,-924,20.6,14.3,-7.5,21.0,14.5,-7.1,5.73,2.43,-23.4,27.3
2013-05-27 01:35:00,0.0,1.8980,0.0009,406.90,0.34,273.8,36.5,138.11,27.70,24.64,36.40,0.04,-272.76,-272.76,-38,561,-923,20.6,14.5,-7.3,21.0,14.7,-6.9,5.73,2.40,-23.4,27.3
2013-05-27 01:36:00,0.0,1.8975,0.0007,406.99,0.29,283.7,33.7,138.11,27.71,24.64,36.40,0.04,-272.76,-272.76,-38,561,-923,20.6,14.4,-7.5,21.0,14.6,-7.0,5.73,2.31,-23.4,27.3
2013-05-27 01:37:00,0.0,1.8973,0.0010,406.95,0.24,283.8,34.2,138.11,27.72,24.65,36.40,0.04,-272.76,-272.74,-38,561,-923,20.6,14.7,-7.2,21.0,14.8,-6.7,5.73,2.42,-23.4,27.4
2013-05-27 01:38:00,0.0,1.8974,0.0009,406.94,0.28,287.7,31.5,138.11,27.72,24.65,36.39,0.04,-272.75,-272.76,-38,561,-923,20.6,14.7,-7.2,21.0,14.9,-6.7,5.73,2.40,-23.4,27.3
2013-05-27 01:39:00,0.0,1.8974,0.0009,406.90,0.36,283.7,33.4,138.11,27.73,24.65,36.40,0.04,-272.75,-272.76,-38,561,-923,20.6,14.7,-7.1,21.0,14.9,-6.7,5.73,2.31,-23.4,27.4
2013-05-27 01:40:00,0.0,1.8971,0.0008,406.93,0.34,283.0,35.4,138.11,27.74,24.65,36.40,0.04,-272.75,-272.77,-38,561,-923,20.6,14.8,-7.1,21.0,15.0,-6.6,5.73,2.43,-23.4,27.4
2013-05-27 01:41:00,0.0,1.8976,0.0009,406.96,0.30,282.5,24.5,138.11,27.74,24.64,36.40,0.04,-272.76,-272.77,-39,561,-923,20.6,14.2,-7.6,21.0,14.5,-7.1,5.73,2.39,-23.4,27.4
2013-05-27 01:42:00,0.0,1.8970,0.0008,406.87,0.29,280.4,32.7,138.11,27.75,24.65,36.40,0.04,-272.76,-272.76,-38,561,-923,20.6,14.3,-7.5,21.0,14.5,-7.0,5.73,2.32,-23.4,27.4
2013-05-27 01:43:00,0.0,1.8975,0.0009,407.01,0.28,284.0,31.5,138.11,27.76,24.65,36.39,0.04,-272.76,-272.76,-38,561,-923,20.6,14.2,-7.7,21.0,14.3,-7.2,5.73,2.43,-23.4,27.4
2013-05-27 01:44:00,0.0,1.8974,0.0008,406.95,0.27,290.4,32.1,138.11,27.76,24.65,36.40,0.04,-272.75,-272.75,-39,561,-923,20.6,14.6,-7.3,21.0,14.7,-6.8,5.73,2.38,-23.4,27.4
2013-05-27 01:45:00,0.0,1.8976,0.0008,406.87,0.30,276.9,31.1,138.11,27.77,24.64,36.40,0.04,-272.76,-272.76,-38,561,-924,20.6,14.7,-7.2,21.0,14.9,-6.7,5.73,2.32,-23.4,27.3
2013-05-27 01:46:00,0.0,1.8978,0.0009,406.91,0.30,283.6,34.5,138.11,27.78,24.64,36.40,0.04,-272.76,-272.76,-38,561,-923,20.6,14.2,-7.6,21.0,14.4,-7.1,5.73,2.44,-23.4,27.3
2013-05-27 01:47:00,0.0,1.8976,0.0008,406.91,0.30,293.1,35.7,138.11,27.79,24.64,36.40,0.04,-272.75,-272.75,-38,561,-923,20.6,14.5,-7.4,21.0,14.7,-6.9,5.73,2.37,-23.4,27.4
2013-05-27 01:48:00,0.0,1.8975,0.0009,406.92,0.29,281.9,36.1,138.11,27.80,24.65,36.40,0.04,-272.76,-272.76,-38,561,-923,20.6,14.9,-7.0,21.0,15.0,-6.5,5.73,2.33,-23.4,27.3
2013-05-27 01:49:00,0.0,1.8974,0.0008,406.94,0.26,280.5,28.3,138.11,27.80,24.65,36.39,0.04,-272.75,-272.75,-38,561,-924,20.6,14.4,-7.4,21.0,14.6,-6.9,5.73,2.44,-23.4,27.4
2013-05-27 01:50:00,0.0,1.8975,0.0009,406.90,0.28,273.1,33.7,138.11,27.81,24.64,36.40,0.04,-272.75,-272.75,-38,561,-924,20.6,14.2,-7.6,21.0,14.4,-7.1,5.73,2.35,-23.3,27.3
2013-05-27 01:51:00,0.0,1.8976,0.0007,406.87,0.24,277.1,31.2,138.11,27.82,24.64,36.40,0.04,-272.76,-272.75,-39,561,-923,20.6,14.5,-7.4,21.0,14.7,-6.9,5.73,2.34,-23.3,27.3
2013-05-27 01:52:00,0.0,1.8974,0.0009,406.95,0.27,284.5,28.4,138.11,27.82,24.64,36.39,0.04,-272.76,-272.75,-39,561,-924,20.6,14.8,-7.1,21.0,14.9,-6.7,5.73,2.45,-23.3,27.3
2013-05-27 01:53:00,0.0,1.8977,0.0007,406.89,0.29,284.0,33.0,138.11,27.83,24.65,36.39,0.04,-272.76,-272.75,-38,561,-924,20.7,14.6,-7.2,21.0,14.8,-6.7,5.73,2.34,-23.3,27.4
2013-05-27 01:54:00,0.0,1.8978,0.0008,406.94,0.32,283.0,33.1,138.11,27.84,24.64,36.40,0.04,-272.75,-272.75,-38,561,-923,20.6,14.7,-7.2,21.1,14.9,-6.7,5.73,2.35,-23.3,27.3
2013-05-27 01:55:00,0.0,1.8980,0.0009,406.89,0.28,280.8,31.5,138.11,27.84,24.64,36.39,0.04,-272.76,-272.75,-39,561,-924,20.6,14.7,-7.2,21.1,14.9,-6.6,5.73,2.44,-23.3,27.3
2013-05-27 01:56:00,0.0,1.8979,0.0008,406.93,0.29,286.3,36.4,138.11,27.85,24.64,36.39,0.04,-272.76,-272.75,-38,561,-923,20.6,14.6,-7.2,21.1,14.8,-6.8,5.73,2.33,-23.3,27.3
2013-05-27 01:57:00,0.0,1.8977,0.0009,406.83,0.27,285.6,36.6,138.11,27.86,24.64,36.40,0.04,-272.75,-272.76,-38,561,-924,20.7,14.7,-7.2,21.1,14.8,-6.7,5.73,2.36,-23.3,27.3
2013-05-27 01:58:00,0.0,1.8975,0.0010,406.94,0.28,275.3,39.7,138.11,27.86,24.65,36.39,0.04,-272.75,-272.76,-39,561,-924,20.7,15.3,-6.7,21.1,15.4,-6.2,5.73,2.44,-23.3,27.3
2013-05-27 01:59:00,0.0,1.8973,0.0010,406.84,0.34,287.9,36.0,138.11,27.87,24.65,36.40,0.04,-272.76,-272.76,-39,561,-924,20.7,15.5,-6.5,21.1,15.7,-6.0,5.73,2.32,-23.3,27.4
2013-05-27 02:00:00,0.0,1.8978,0.0011,406.87,0.35,288.1,37.7,138.11,27.87,24.64,36.40,0.04,-272.76,-272.76,-38,561,-923,20.7,15.1,-6.8,21.1,15.3,-6.3,5.73,2.39,-23.3,27.4
2013-05-27 02:01:00,0.0,1.8976,0.0009,406.94,0.30,292.3,31.0,138.11,27.88,24.65,36.39,0.04,-272.76,-272.75,-38,561,-923,20.7,15.0,-6.9,21.1,15.2,-6.4,5.73,2.43,-23.3,27.4
2013-05-27 02:02:00,0.0,1.8982,0.0009,406.85,0.34,287.3,33.8,138.11,27.89,24.64,36.40,0.04,-272.75,-272.75,-39,561,-923,20.7,15.1,-6.8,21.1,15.3,-6.3,5.73,2.31,-23.3,27.4
2013-05-27 02:03:00,0.0,1.8978,0.0009,406.89,0.32,289.0,30.9,138.11,27.89,24.65,36.39,0.04,-272.75,-272.76,-38,561,-922,20.7,15.1,-6.8,21.1,15.3,-6.3,5.73,2.41,-23.3,27.4
2013-05-27 02:04:00,0.0,1.8977,0.0010,406.84,0.33,291.0,30.1,138.11,27.90,24.65,36.39,0.04,-272.75,-272.75,-38,560,-926,20.7,14.8,-7.0,21.1,15.1,-6.5,5.73,2.41,-23.3,27.5
2013-05-27 02:05:00,0.0,1.8977,0.0010,406.80,0.32,293.5,31.1,138.11,27.91,24.65,36.40,0.04,-272.75,-272.76,-42,561,-923,20.7,14.3,-7.5,21.1,14.5,-7.0,5.73,2.31,-23.3,27.4
2013-05-27 02:06:00,0.0,1.8979,0.0010,406.87,0.33,291.3,33.7,138.11,27.91,24.64,36.40,0.04,-272.76,-272.76,-37,560,-923,20.7,14.4,-7.4,21.1,14.5,-6.9,5.73,2.42,-23.3,27.4
2013-05-27 02:07:00,0.0,1.8975,0.0008,406.85,0.30,293.7,34.3,138.11,27.92,24.65,36.40,0.04,-272.74,-272.76,-38,563,-922,20.7,14.2,-7.6,21.1,14.4,-7.1,5.73,2.39,-23.3,27.4
2013-05-27 02:08:00,0.0,1.8974,0.0008,406.85,0.33,293.6,34.3,138.11,27.93,24.65,36.40,0.04,-272.75,-272.75,-37,561,-922,20.7,14.5,-7.3,21.1,14.6,-6.9,5.73,2.32,-23.3,27.4
2013-05-27 02:09:00,0.0,1.8974,0.0009,406.91,0.26,291.1,34.9,138.11,27.93,24.65,36.40,0.04,-272.76,-272.76,-38,565,-923,20.7,14.6,-7.2,21.1,14.8,-6.7,5.73,2.44,-23.3,27.4
2013-05-27 02:10:00,0.0,1.8976,0.0011,406.87,0.29,296.0,34.2,138.11,27.94,24.65,36.40,0.04,-272.75,-272.76,-39,559,-923,20.7,14.7,-7.1,21.2,14.8,-6.6,5.73,2.35,-23.3,27.4
2013-05-27 02:11:00,0.0,1.8975,0.0010,406.82,0.35,292.0,30.7,138.11,27.94,24.65,36.40,0.04,-272.75,-272.76,-39,560,-923,20.8,15.1,-6.7,21.2,15.3,-6.2,5.73,2.34,-23.3,27.4
2013-05-27 02:12:00,0.0,1.8974,0.0010,406.83,0.30,295.0,32.1,138.11,27.95,24.65,36.40,0.04,-272.76,-272.76,-39,561,-924,20.8,15.1,-6.8,21.2,15.3,-6.3,5.73,2.44,-23.3,27.4
2013-05-27 02:13:00,0.0,1.8975,0.0009,406.83,0.33,295.8,35.7,138.11,27.96,24.65,36.40,0.04,-272.75,-272.75,-38,561,-923,20.8,14.8,-7.0,21.2,15.0,-6.5,5.73,2.33,-23.3,27.4
2013-05-27 02:14:00,0.0,1.8974,0.0010,406.71,0.27,299.6,35.3,138.11,27.96,24.65,36.41,0.04,-272.76,-272.76,-38,561,-923,20.8,14.9,-6.9,21.2,15.1,-6.4,5.73,2.35,-23.3,27.4
2013-05-27 02:15:00,0.0,1.8974,0.0009,406.77,0.31,297.4,32.3,138.11,27.97,24.65,36.40,0.04,-272.75,-272.76,-38,561,-924,20.8,14.7,-7.1,21.2,14.8,-6.6,5.73,2.43,-23.3,27.4
2013-05-27 02:16:00,0.0,1.8975,0.0008,406.81,0.29,298.1,35.2,138.11,27.97,24.65,36.40,0.04,-272.76,-272.76,-38,561,-924,20.8,14.9,-6.9,21.2,15.1,-6.4,5.73,2.32,-23.2,27.4